FW1140 Weather Reports


time (UTC)temp
C
wind
direction
speed
KPH
gust
KPH
rain 1hr
cm
rain 24hr
cm
rain mn
cm
humidity
%
barometer
mb
20260510211551 14 335 17.7 33.8 0.00 0.00 0.00 35 1019.8
20260510210032 15 347 14.5 30.6 0.00 0.00 0.00 33 1019.8
20260510204526 14 311 9.7 22.5 0.00 0.00 0.00 34 1019.8
20260510203028 14 4 17.7 32.2 0.00 0.00 0.00 34 1019.8
20260510201525 15 360 14.5 32.2 0.00 0.00 0.00 34 1020.0
20260510200024 15 353 22.5 33.8 0.00 0.00 0.00 33 1019.9
20260510194526 14 4 11.3 30.6 0.00 0.00 0.00 36 1019.9
20260510193023 14 3 16.1 29.0 0.00 0.00 0.00 35 1019.9
20260510191536 15 4 20.9 33.8 0.00 0.00 0.00 34 1019.9
20260510190021 14 360 20.9 29.0 0.00 0.00 0.00 36 1019.8
20260510184519 14 340 17.7 25.7 0.00 0.00 0.00 35 1019.9
20260510183019 13 324 14.5 37.0 0.00 0.00 0.00 37 1020.0
20260510181518 14 333 16.1 30.6 0.00 0.00 0.00 35 1020.0
20260510180018 13 316 19.3 32.2 0.00 0.00 0.00 39 1019.9
20260510174515 13 342 19.3 27.4 0.00 0.00 0.00 40 1019.7
20260510173012 13 343 24.1 32.2 0.00 0.00 0.00 41 1019.6
20260510171512 13 321 16.1 25.7 0.00 0.00 0.00 40 1019.6
20260510170007 13 1 17.7 25.7 0.00 0.00 0.00 42 1019.6
20260510164502 13 356 16.1 25.7 0.00 0.00 0.00 42 1019.7
20260510163102 12 356 20.9 29.0 0.00 0.00 0.00 42 1019.8
20260510161555 12 359 12.9 29.0 0.00 0.00 0.00 45 1019.6
20260510154555 11 1 17.7 24.1 0.00 0.00 0.00 45 1019.4
20260510153042 11 8 16.1 22.5 0.00 0.00 0.00 46 1019.2
20260510151538 11 354 16.1 25.7 0.00 0.00 0.00 46 1019.1
20260510150034 11 12 14.5 25.7 0.00 0.00 0.00 50 1019.2
20260510144539 10 2 17.7 25.7 0.00 0.00 0.00 51 1019.2
20260510143036 10 4 16.1 29.0 0.00 0.00 0.00 52 1019.2
20260510141520 10 1 14.5 29.0 0.00 0.00 0.00 53 1019.2
20260510140016 9 355 17.7 27.4 0.00 0.00 0.00 54 1019.0
20260510134512 8 359 17.7 24.1 0.00 0.00 0.00 55 1018.9
20260510133007 8 360 16.1 20.9 0.00 0.00 0.00 59 1018.9
20260510131503 7 321 17.7 22.5 0.00 0.00 0.00 61 1018.8
20260510130059 7 314 17.7 24.1 0.00 0.00 0.00 62 1018.6
20260510124609 7 307 14.5 22.5 0.00 0.00 0.00 63 1018.4
20260510123050 6 305 17.7 24.1 0.00 0.00 0.00 63 1018.1
20260510121546 6 320 14.5 20.9 0.00 0.00 0.00 64 1017.9
20260510120041 6 297 12.9 19.3 0.00 0.00 0.00 64 1017.7
20260510114537 6 324 14.5 25.7 0.00 0.00 0.00 63 1017.5
20260510113032 5 231 12.9 20.9 0.00 0.00 0.00 65 1016.7
20260510111530 4 225 14.5 20.9 0.00 0.00 0.00 66 1016.4
20260510110036 5 229 16.1 22.5 0.00 0.00 0.00 63 1016.4
20260510104526 5 224 17.7 24.1 0.00 0.00 0.00 64 1016.1
20260510103024 5 226 16.1 22.5 0.00 0.00 0.00 64 1016.0
20260510101522 5 216 19.3 24.1 0.00 0.00 0.00 65 1015.8
20260510100021 4 226 17.7 22.5 0.00 0.10 0.00 67 1015.7
20260510094538 3 224 11.3 17.7 0.00 0.10 0.00 66 1015.6
20260510093019 4 223 14.5 17.7 0.00 0.10 0.00 64 1015.6
20260510091522 4 224 16.1 20.9 0.00 0.10 0.00 64 1015.5
20260510090019 3 221 11.3 14.5 0.00 0.10 0.00 67 1015.5
20260510084516 3 299 1.6 4.8 0.00 0.10 0.00 65 1015.5
20260510083013 5 255 1.6 8.0 0.00 0.10 0.00 64 1015.5
20260510081515 4 330 3.2 16.1 0.00 0.10 0.00 67 1015.4
20260510080014 3 231 12.9 17.7 0.00 0.10 0.00 71 1015.2
20260510074506 3 231 12.9 17.7 0.00 0.10 0.00 74 1015.1
20260510073007 3 227 9.7 12.9 0.00 0.10 0.00 77 1015.0
20260510071502 2 229 9.7 14.5 0.00 0.10 0.00 77 1014.9
20260510070002 3 238 9.7 11.3 0.00 0.10 0.00 73 1015.0
20260510064601 3 237 8.0 14.5 0.00 0.10 0.00 73 1015.0
20260510063059 3 236 9.7 14.5 0.00 0.10 0.00 73 1015.0
20260510061556 2 232 11.3 14.5 0.00 0.10 0.00 69 1015.1
20260510060055 2 231 11.3 14.5 0.00 0.10 0.00 67 1015.0
20260510054551 2 231 8.0 11.3 0.00 0.10 0.00 67 1014.8
20260510053059 2 233 9.7 12.9 0.00 0.10 0.00 66 1014.8
20260510051549 3 231 11.3 12.9 0.00 0.10 0.00 64 1014.9
20260510050043 3 236 8.0 9.7 0.00 0.10 0.00 61 1014.7
20260510044539 4 236 8.0 12.9 0.00 0.10 0.10 59 1014.7
20260510043043 5 238 6.4 9.7 0.00 0.10 0.10 57 1014.6
20260510041534 6 251 6.4 8.0 0.00 0.10 0.10 54 1014.6
20260510040039 7 254 4.8 9.7 0.00 0.10 0.10 50 1014.5
20260510034530 7 271 4.8 9.7 0.00 0.10 0.10 50 1014.4
20260510033029 7 264 6.4 9.7 0.00 0.10 0.10 49 1014.3
20260510031529 7 262 4.8 8.0 0.00 0.10 0.10 49 1014.2
20260510030027 8 267 4.8 8.0 0.00 0.10 0.10 48 1014.0
20260510024525 8 271 6.4 8.0 0.00 0.10 0.10 47 1013.8
20260510023023 8 262 4.8 8.0 0.00 0.10 0.10 47 1013.6
20260510021535 9 275 3.2 8.0 0.00 0.10 0.10 45 1013.4
20260510020020 10 285 8.0 11.3 0.00 0.10 0.10 42 1013.2
20260510014522 10 321 8.0 12.9 0.00 0.10 0.10 41 1013.0
20260510013023 11 298 9.7 14.5 0.00 0.10 0.10 40 1012.8
20260510011515 12 292 9.7 17.7 0.00 0.10 0.10 38 1012.5
20260510010013 12 335 14.5 22.5 0.00 0.10 0.10 34 1012.3
20260510004514 13 302 14.5 27.4 0.00 0.10 0.10 35 1012.1
20260510003011 13 321 17.7 29.0 0.00 0.10 0.10 33 1012.0
20260510001510 13 352 16.1 30.6 0.00 0.10 0.10 33 1011.9
20260510000009 13 335 24.1 32.2 0.00 0.10 0.10 32 1011.7
20260509234507 14 314 16.1 32.2 0.00 0.10 0.10 33 1011.6
20260509233006 14 351 19.3 29.0 0.00 0.10 0.10 32 1011.4
20260509231505 14 333 20.9 35.4 0.00 0.10 0.10 32 1011.4
20260509230007 14 324 22.5 35.4 0.00 0.10 0.10 32 1011.2
20260509224506 14 280 20.9 38.6 0.00 0.10 0.10 33 1011.1
20260509223002 15 326 30.6 37.0 0.00 0.10 0.10 32 1010.9
20260509221503 15 333 25.7 32.2 0.00 0.10 0.10 32 1010.9
20260509214632 15 295 27.4 45.1 0.00 0.10 0.10 33 1010.9
20260509213102 15 325 25.7 35.4 0.00 0.10 0.10 34 1010.8